Wind_Speed
13 14 15 16 17 18 18 17 17 16 15 15 16 16 17 17 18 19 20 21 21 21 21 22 23 24 24 24 24 25 25 26 26 26 26 27 28 29 29 30 31 31 32
12 14 15 16 17 17 16 16 14 14 15 15 14 16 17 18 18 19 20 20 20 20 21 22 23 24 24 25 25 25 25 26 27 27 27 27 28 29 29 30 30 31 31
13 14 15 16 16 15 15 14 14 15 15 14 15 16 17 18 18 19 20 20 20 21 22 22 23 24 24 25 25 26 26 27 28 28 28 28 29 29 29 29 30 30 31
13 13 14 14 14 13 12 13 14 14 14 15 16 17 17 17 18 19 20 20 20 20 22 23 23 24 25 25 26 26 26 27 28 28 28 29 29 29 29 29 30 30 30
13 13 13 13 12 12 13 13 14 14 15 15 16 16 16 17 18 20 21 21 21 22 23 23 24 25 25 26 26 27 27 27 28 29 29 29 29 29 29 29 30 30 30
13 13 13 12 12 13 13 14 14 14 15 15 16 16 17 18 19 21 22 23 23 23 24 24 25 25 26 27 28 27 27 27 28 28 28 28 28 28 29 29 30 30 30
13 13 13 13 13 14 14 14 14 15 15 16 16 17 17 19 20 21 22 23 23 23 24 24 25 26 26 26 26 26 26 27 27 28 27 27 27 27 28 28 29 30 30
14 14 14 14 14 14 14 14 15 15 15 16 17 17 18 20 21 22 22 22 23 23 24 25 25 26 25 25 25 25 26 25 25 26 26 26 27 28 28 28 30 30 29
14 14 14 14 14 14 14 14 15 15 15 16 17 18 19 20 21 22 22 23 23 24 24 25 25 25 25 25 25 25 25 25 24 25 25 26 27 27 28 28 28 28 27
15 15 14 15 15 14 14 15 15 15 16 17 17 18 19 20 21 22 22 23 23 24 25 26 25 25 25 26 25 25 24 24 24 24 25 25 25 26 27 27 27 26 25
16 15 15 15 15 14 14 15 15 16 16 17 18 19 20 21 22 22 23 23 23 24 25 26 26 25 25 25 25 24 24 24 24 24 24 24 24 25 26 25 24 23 22
16 16 15 15 14 14 14 15 16 16 17 18 18 19 20 22 22 22 22 23 23 24 25 25 25 26 25 25 24 24 24 24 24 24 24 24 24 24 25 24 22 22 22
16 16 15 15 15 15 15 15 16 17 17 18 18 19 20 21 21 21 22 23 23 23 25 25 25 25 25 24 23 23 23 23 23 24 23 23 23 24 24 23 22 22 21
16 16 16 16 16 16 16 16 17 17 17 18 18 20 20 21 21 22 22 22 23 23 24 25 24 24 24 23 24 24 25 24 23 23 23 23 23 23 24 24 23 22 22
17 16 16 16 16 16 16 16 17 18 18 18 18 19 20 20 20 21 22 22 23 23 24 24 25 24 23 24 24 24 24 23 24 24 24 24 24 23 23 23 23 22 22
17 17 16 16 15 16 16 17 17 18 18 18 18 19 19 19 20 20 21 22 23 23 24 24 25 24 23 23 23 23 23 24 24 25 25 25 24 24 23 24 23 22 22
16 16 16 16 16 16 17 17 17 17 17 17 18 18 18 19 19 20 20 21 22 23 24 24 25 25 23 23 23 23 24 24 25 26 26 25 24 24 25 24 24 23 22
16 16 16 16 17 17 17 17 16 16 16 17 18 18 19 19 19 19 20 21 22 23 23 24 24 24 23 23 24 24 24 24 25 26 26 26 25 25 25 24 24 23 21
16 16 16 16 17 17 17 17 16 16 17 18 19 19 19 19 19 19 20 22 23 23 23 23 23 24 24 24 24 24 24 25 25 25 26 26 25 25 25 24 23 22 21
16 15 16 17 17 17 17 17 17 17 18 19 19 19 19 19 19 19 20 21 22 22 22 23 23 24 24 25 24 24 25 25 25 25 25 25 25 25 25 24 22 21 20
16 16 16 17 17 18 18 17 18 18 18 19 19 19 18 18 18 19 19 19 20 21 21 22 24 24 25 25 25 25 26 25 25 25 25 25 25 25 24 23 22 21 19
16 16 16 17 18 18 18 18 18 18 18 18 19 18 18 18 18 19 19 19 20 21 22 22 23 24 24 25 25 25 25 25 24 25 25 25 25 24 23 22 21 20 19
18 17 17 18 18 18 18 18 18 18 17 17 17 19 19 18 19 19 20 19 19 19 20 21 22 22 23 24 24 25 25 25 25 25 25 25 24 23 22 21 20 19 19
18 18 18 18 18 18 18 18 17 17 17 18 18 18 19 19 20 20 20 19 18 19 20 21 21 22 23 24 24 24 24 25 25 24 24 23 23 22 22 21 20 20 19
18 19 19 19 18 18 18 17 17 17 17 17 17 17 18 19 19 19 18 18 18 19 19 20 21 22 22 22 22 23 24 24 24 24 23 23 22 22 22 21 20 20 19
19 19 19 19 19 18 17 17 17 17 17 17 17 18 18 17 17 17 17 17 17 17 18 19 20 21 21 22 22 22 22 23 24 24 24 23 23 22 21 21 20 20 19
Wind_Direction
295 300 303 304 302 301 303 302 301 302 306 311 312 314 312 311 310 310 309 309 305 303 302 303 302 300 299 299 298 297 296 297 297 296 296 295 295 295 295 292 289 287 286
298 300 302 303 303 303 303 301 303 306 309 311 314 315 317 317 315 315 315 313 310 307 306 306 305 303 302 301 300 299 297 298 298 297 297 297 296 297 297 296 294 290 287
300 301 303 305 305 304 304 304 306 307 310 315 316 315 317 319 318 316 318 317 314 311 309 309 309 307 305 303 300 299 297 298 299 298 297 297 297 297 298 298 297 294 289
303 304 305 307 306 306 307 309 310 312 313 312 312 315 317 318 319 320 321 320 317 315 313 311 311 309 306 303 302 301 299 300 300 299 298 297 297 297 297 297 297 295 292
305 306 309 309 308 307 309 311 315 314 312 313 314 315 316 315 316 319 320 320 317 316 315 315 313 311 309 306 304 303 302 301 302 301 299 298 299 298 297 298 298 298 296
306 307 310 309 307 307 307 309 312 313 313 314 315 316 318 318 319 321 323 321 320 318 317 317 316 315 312 309 307 306 305 304 304 305 302 300 300 300 298 299 298 298 299
304 305 307 304 304 304 305 308 309 310 313 316 318 319 320 321 322 322 322 322 321 322 322 321 319 317 315 312 311 310 309 309 309 307 304 302 302 302 301 301 301 300 300
302 304 305 302 303 301 301 304 307 308 309 312 315 318 322 324 324 324 323 326 329 328 326 325 323 322 320 317 316 315 314 313 312 311 310 308 306 303 303 304 304 303 302
297 300 301 300 301 300 299 302 306 308 310 311 313 316 320 323 325 326 328 330 330 329 328 326 325 325 325 323 321 319 317 314 314 314 313 312 310 308 307 306 306 304 303
296 298 298 297 298 297 299 302 305 306 308 310 311 313 319 323 326 327 329 330 329 328 328 328 327 326 326 326 324 321 319 318 316 315 315 314 315 315 313 310 309 308 308
294 297 296 295 296 297 299 301 304 306 308 310 311 315 320 323 323 325 328 329 329 328 328 328 329 329 327 327 326 324 321 320 319 318 318 320 321 322 320 318 316 314 312
293 295 295 294 296 296 296 300 303 306 308 310 313 316 320 323 323 324 326 326 327 328 328 328 328 329 329 329 327 326 326 326 325 324 322 324 325 325 325 323 321 318 315
294 294 293 292 294 293 294 297 301 305 307 309 313 316 319 322 323 323 325 326 327 329 331 331 329 329 330 330 330 329 330 330 329 330 330 329 329 329 329 327 324 322 321
290 291 291 292 293 293 294 296 299 302 304 308 312 316 318 321 323 322 323 326 327 328 331 333 332 331 332 333 332 332 333 333 332 333 333 332 331 331 330 330 329 326 323
286 287 289 291 292 293 293 295 299 303 305 309 312 316 318 319 321 322 322 325 328 329 331 332 332 330 331 332 333 334 335 335 334 334 333 332 331 330 331 331 330 328 327
286 287 287 289 293 294 293 295 298 303 308 310 313 315 316 316 318 321 322 325 327 331 333 333 334 333 331 331 332 334 335 335 335 335 334 332 331 331 331 330 330 329 326
286 287 288 289 293 295 296 297 298 301 306 309 311 312 313 314 317 320 322 324 327 331 333 335 336 336 334 332 332 333 333 333 334 334 333 332 332 331 330 329 329 330 329
285 287 287 290 293 297 299 300 301 303 306 308 309 310 310 314 316 318 319 322 325 328 331 334 336 337 336 335 334 334 334 334 334 333 333 332 331 331 330 330 330 330 330
284 286 288 290 293 296 299 300 301 303 305 307 308 308 309 312 312 313 317 320 324 328 331 334 336 338 337 335 334 333 333 333 333 333 332 332 331 331 330 330 331 331 330
284 286 287 288 291 295 297 299 300 301 303 306 309 310 311 311 311 312 316 320 323 327 331 334 335 336 338 337 336 335 333 333 333 334 333 331 331 331 331 330 331 331 331
284 286 288 289 291 294 295 296 297 300 303 306 310 311 313 314 315 318 320 323 326 327 330 332 334 336 337 338 338 338 337 335 334 334 334 334 333 333 334 333 332 332 332
283 287 290 290 292 295 295 296 298 300 302 306 309 310 312 313 313 316 320 324 326 327 328 330 333 335 337 339 340 340 340 339 337 336 335 336 337 337 337 336 335 334 333
282 285 289 290 292 294 294 295 295 298 300 303 306 308 311 312 313 317 319 321 324 326 329 331 334 335 336 338 341 342 343 343 341 339 337 338 339 339 339 339 339 339 338
281 284 287 289 291 292 293 292 293 294 296 299 303 306 309 311 313 316 318 320 324 328 330 332 335 336 337 338 340 342 343 345 346 345 344 345 347 346 345 344 343 343 344
279 283 285 288 290 291 291 290 291 293 295 298 300 303 308 312 313 315 317 318 322 327 329 332 335 337 337 339 341 342 344 346 348 349 348 349 350 350 349 349 348 347 346
279 281 283 286 289 290 289 288 289 292 294 296 298 301 305 310 312 314 315 317 321 326 329 332 335 338 339 339 341 342 344 347 350 350 349 349 349 350 352 353 352 350 348
Height
5789 5788 5787 5786 5785 5784 5783 5781 5780 5778 5776 5775 5773 5771 5770 5767 5765 5763 5760 5758 5755 5753 5751 5749 5746 5744 5741 5739 5737 5735 5732 5729 5727 5725 5722 5720 5717 5715 5712 5709 5707 5705 5702
5786 5785 5784 5783 5781 5780 5779 5777 5776 5775 5773 5771 5769 5768 5766 5763 5761 5759 5756 5754 5751 5748 5746 5743 5741 5738 5735 5733 5730 5728 5725 5722 5720 5718 5715 5712 5709 5706 5703 5701 5698 5695 5693
5783 5782 5781 5780 5778 5777 5775 5774 5773 5771 5770 5768 5766 5764 5762 5760 5757 5755 5752 5749 5746 5743 5741 5738 5735 5732 5729 5727 5724 5721 5718 5715 5712 5710 5707 5704 5701 5698 5695 5692 5689 5686 5683
5780 5779 5778 5776 5775 5774 5772 5771 5770 5768 5766 5765 5763 5761 5759 5757 5754 5752 5748 5745 5742 5739 5736 5733 5730 5726 5723 5720 5717 5714 5711 5708 5705 5702 5699 5696 5693 5689 5686 5683 5680 5677 5674
5777 5776 5775 5773 5772 5771 5770 5769 5767 5765 5763 5761 5759 5758 5756 5753 5751 5748 5745 5741 5738 5735 5731 5728 5724 5720 5717 5713 5710 5707 5704 5700 5697 5694 5691 5688 5685 5681 5678 5675 5672 5669 5666
5775 5773 5772 5771 5770 5768 5767 5766 5764 5762 5760 5758 5756 5755 5753 5750 5747 5744 5741 5738 5734 5730 5726 5722 5718 5714 5711 5707 5703 5699 5696 5693 5689 5686 5682 5679 5676 5673 5670 5667 5663 5660 5657
5772 5771 5770 5768 5767 5766 5764 5763 5761 5759 5758 5756 5754 5752 5750 5747 5744 5740 5737 5733 5730 5726 5722 5717 5713 5709 5704 5700 5697 5693 5689 5685 5682 5679 5675 5671 5668 5666 5662 5659 5655 5651 5648
5769 5768 5767 5765 5764 5763 5762 5760 5758 5756 5755 5753 5751 5749 5746 5743 5740 5737 5733 5729 5725 5722 5718 5713 5708 5703 5699 5695 5691 5687 5683 5679 5676 5672 5669 5665 5661 5657 5654 5650 5646 5643 5639
5766 5765 5764 5762 5761 5760 5758 5757 5755 5753 5752 5750 5748 5745 5743 5740 5737 5733 5730 5726 5722 5718 5713 5709 5704 5699 5694 5690 5686 5682 5678 5674 5670 5666 5662 5658 5654 5650 5646 5642 5638 5634 5630
5763 5761 5760 5759 5758 5756 5755 5753 5752 5750 5748 5746 5744 5742 5739 5736 5733 5730 5726 5722 5718 5714 5709 5705 5700 5695 5690 5686 5681 5677 5673 5669 5665 5661 5657 5653 5649 5644 5639 5634 5630 5626 5622
5759 5758 5756 5755 5754 5753 5751 5750 5748 5747 5745 5743 5741 5738 5736 5733 5730 5726 5722 5718 5714 5710 5705 5701 5696 5691 5686 5681 5677 5673 5668 5664 5660 5656 5652 5648 5643 5638 5633 5628 5623 5619 5615
5755 5754 5753 5752 5750 5749 5748 5746 5745 5743 5741 5739 5737 5734 5732 5729 5725 5722 5718 5714 5710 5706 5701 5696 5692 5687 5682 5677 5673 5669 5664 5660 5655 5651 5647 5643 5638 5633 5627 5622 5618 5614 5610
5751 5750 5749 5747 5746 5745 5744 5742 5741 5739 5737 5735 5733 5731 5728 5725 5721 5718 5714 5710 5706 5702 5697 5692 5687 5683 5678 5674 5669 5665 5660 5655 5651 5647 5642 5638 5633 5628 5623 5618 5614 5609 5605
5747 5746 5745 5743 5742 5741 5739 5738 5737 5735 5733 5731 5729 5726 5723 5720 5717 5714 5710 5706 5702 5698 5693 5688 5683 5679 5675 5670 5666 5661 5656 5651 5647 5643 5638 5633 5628 5624 5619 5614 5610 5605 5601
5743 5742 5740 5739 5738 5736 5735 5733 5732 5730 5728 5726 5724 5721 5719 5716 5713 5709 5706 5703 5699 5694 5690 5685 5681 5676 5671 5667 5662 5657 5653 5648 5643 5639 5634 5629 5624 5620 5615 5610 5606 5601 5597
5738 5737 5736 5735 5733 5732 5731 5729 5727 5725 5723 5721 5719 5717 5714 5712 5709 5705 5702 5698 5694 5690 5686 5681 5677 5672 5667 5663 5659 5654 5649 5644 5640 5635 5630 5625 5620 5615 5611 5607 5602 5597 5593
5733 5732 5731 5730 5729 5727 5726 5724 5723 5721 5719 5717 5715 5713 5710 5708 5705 5702 5698 5695 5691 5687 5683 5678 5673 5668 5663 5659 5654 5650 5645 5640 5636 5631 5626 5621 5616 5611 5607 5603 5598 5594 5589
5729 5728 5726 5725 5724 5723 5721 5719 5718 5716 5715 5713 5711 5709 5706 5704 5701 5698 5695 5691 5688 5683 5679 5674 5670 5665 5660 5655 5650 5646 5641 5637 5632 5627 5622 5617 5612 5608 5603 5599 5594 5590 5585
5724 5723 5722 5721 5719 5718 5717 5715 5713 5712 5710 5708 5706 5704 5702 5699 5696 5694 5691 5687 5684 5680 5675 5671 5666 5661 5657 5652 5647 5642 5638 5633 5628 5623 5618 5613 5608 5604 5599 5595 5590 5586 5582
5719 5719 5717 5716 5715 5714 5712 5711 5709 5707 5705 5703 5701 5699 5697 5694 5692 5689 5686 5683 5679 5676 5672 5668 5663 5658 5653 5648 5643 5638 5633 5629 5624 5619 5614 5610 5605 5600 5595 5591 5586 5582 5578
5715 5714 5713 5711 5710 5709 5707 5706 5704 5703 5701 5699 5697 5694 5692 5690 5687 5685 5681 5678 5675 5671 5668 5664 5659 5655 5650 5645 5640 5635 5630 5625 5620 5615 5610 5606 5601 5596 5591 5586 5582 5578 5575
5709 5709 5708 5707 5705 5704 5702 5701 5699 5698 5696 5694 5692 5690 5688 5685 5683 5680 5677 5674 5671 5667 5664 5660 5655 5651 5646 5642 5637 5632 5627 5621 5616 5612 5607 5602 5597 5593 5588 5583 5579 5575 5571
5704 5704 5703 5702 5700 5699 5697 5696 5694 5693 5692 5690 5688 5686 5683 5681 5678 5675 5672 5669 5666 5663 5659 5656 5652 5648 5643 5639 5634 5629 5624 5619 5613 5608 5603 5599 5594 5589 5585 5580 5576 5572 5568
5699 5698 5698 5696 5695 5694 5692 5691 5690 5688 5687 5685 5683 5681 5679 5677 5674 5671 5668 5665 5662 5659 5655 5652 5648 5644 5640 5636 5631 5626 5621 5616 5611 5606 5601 5596 5591 5587 5582 5578 5573 5570 5566
5693 5693 5692 5691 5690 5688 5687 5686 5685 5684 5682 5681 5679 5677 5674 5672 5669 5667 5664 5661 5658 5655 5652 5649 5645 5641 5637 5633 5629 5624 5619 5614 5609 5604 5599 5594 5589 5585 5580 5576 5571 5567 5563
5687 5687 5686 5685 5684 5683 5682 5681 5680 5678 5677 5675 5674 5672 5670 5667 5665 5662 5660 5657 5655 5652 5649 5645 5642 5638 5635 5631 5627 5622 5617 5613 5608 5603 5598 5593 5588 5584 5579 5574 5570 5565 5561